Location: Roc des P�zouls
(43.9667°N, 3.5500°E)
Time: 03:41:50
(UTC+00:00)

deb Kosmos-1763 - Pass Details

Date: 14 November 2019
Orbit: 473 x 485 km, 74.0° (Epoch: 06 December)

Event Time Altitude Azimuth Distance (km) Brightness Sun altitude
Exits shadow 05:08:02 10° 214° (SW) 1,687 6.6 -16.4°
Reaches altitude 10° 05:08:06 10° 214° (SW) 1,665 6.5 -16.4°
Maximum altitude 05:11:42 55° 293° (WNW) 593 4.1 -15.7°
Drops below altitude 10° 05:15:21 10° 12° (NNE) 1,681 6.8 -15.1°
Sets 05:17:32 0° 17° (NNE) 2,566 7.8 -14.7°
